Location: Go?cza
(50.3372°N, 19.9313°E)
Time: 21:49:12
(UTC+00:00)

CZ-2D R/B - Pass Details

Date: 23 May 2024
Orbit: 790 x 843 km, 98.8° (Epoch: 21 June)

Event Time Altitude Azimuth Distance (km) Brightness Sun altitude
Rises 00:09:27 0° 20° (NNE) 3,414 7.2 -16.1°
Reaches altitude 10° 00:11:58 10° 27° (NNE) 2,473 6.0 -16.0°
Maximum altitude 00:17:09 42° 98° (E) 1,190 3.1 -15.7°
Enters shadow 00:21:27 14° 164° (SSE) 2,147 3.9 -15.4°
